THOR ABLESTAR DEB, 48816

Orbit data source: Space-Track

THOR ABLESTAR DEB, 48816 is space debris in LEO originally from a launch on Thu, 29 Jun 1961 UTC launched from the Air Force Eastern Test Range (AFETR). Debris objects in space refer to the collection of defunct objects orbiting the Earth. Examples of debris include non-operational satellites, rocket bodies, and fragments generated from explosions, collisions, or faulty payload assembly.

Loading next visibility...
Identifier
48816, 1961-015MU
Orbit
LEO
Country
Flag of USUS
Related business
Manufacturer
Unknown
Mission
Spacecraft
Bus & Motor
Unknown
Mass
Unknown
Launch date (UTC)
1961-06-29 (64 years ago)
Launch vehicle
Unknown
Launch site
Air Force Eastern Test Range (AFETR)
Object type
Payload
Rocket body
Debris
Shape & HBR
Unknown shape, 0.1 m
Radar Cross Section
Small (<0.1 m²)

Expand to show TLE details & history
Last TLE update: 1 day ago

TLE from 1 day ago
0 THOR ABLESTAR DEB
1 48816U 61015MU  25346.33185013  .00001721  00000-0  99851-3 0  9990
2 48816  66.8100  11.8459 0105786 323.9959  35.4033 14.08344090619529
Epoch: 2025-12-12T07:57Z
TLE epoch observation values (Epoch: 2025-12-12T07:57:51.851Z)
Latitude
-0.00004°
Longitude
171.10484°
Altitude
804.952 km
Speed
7.483 km/s
True Right ascension
00h 47m 23s
True Declination
0° 00' 00"
Sunlit
Object was in daylight at epoch
Visualization orbit readout
Latitude
Unknown
Longitude
Unknown
Altitude
Unknown
Speed
Unknown
Apparent Right ascension
Unknown
Apparent Declination
Unknown
Sunlit
N/A
Visualization observer readout
Local Sidereal Time
06:32:01
Azimuth
Unknown
Elevation
Unknown
Doppler factor
Unknown
Orbital elements
Apogee altitude
940.028 km
Perigee altitude
786.817 km
Semi-major axis
7,241.559 km
Eccentricity
0.01058
Inclination
66.81°
RAAN
11.8459°
Arg. of periapsis
323.9959°
True anomaly
36.1132°
Mean anomaly
35.4033°
Eccentric anomaly
35.75748°
Mean motion
3.52205 °/min
Orbital period
102.21 mins
BSTAR
0.00099851
Loading maneuver chart data...
Computing Atmospheric mass density...

Documentation

Showing up to 5 results
|